TimeCDT,TemperatureF,Dew PointF,Humidity,Sea Level PressureIn,VisibilityMPH,Wind Direction,Wind SpeedMPH,Gust SpeedMPH,PrecipitationIn,Events,Conditions,WindDirDegrees,DateUTC
12:00 AM,50.0,37.4,62,30.02,10.0,ENE,8.1,-,N/A,,Clear,60,2012-11-01 05:00:00
12:20 AM,51.8,37.4,58,30.02,10.0,ENE,6.9,-,N/A,,Clear,70,2012-11-01 05:20:00
12:40 AM,51.8,37.4,58,30.02,10.0,East,6.9,-,N/A,,Clear,90,2012-11-01 05:40:00
1:00 AM,51.8,37.4,58,30.01,10.0,SE,8.1,-,N/A,,Clear,130,2012-11-01 06:00:00
1:20 AM,50.0,37.4,62,30.01,10.0,SE,8.1,-,N/A,,Clear,140,2012-11-01 06:20:00
1:40 AM,50.0,37.4,62,30.01,10.0,SE,6.9,-,N/A,,Clear,140,2012-11-01 06:40:00
2:00 AM,48.2,37.4,66,30.01,10.0,SSE,4.6,-,N/A,,Clear,150,2012-11-01 07:00:00
2:20 AM,46.4,37.4,71,30.01,10.0,SSW,3.5,-,N/A,,Clear,200,2012-11-01 07:20:00
2:40 AM,46.4,37.4,71,30.01,10.0,SW,3.5,-,N/A,,Clear,220,2012-11-01 07:40:00
3:00 AM,44.6,35.6,71,30.00,10.0,SSW,4.6,-,N/A,,Clear,210,2012-11-01 08:00:00
3:20 AM,46.4,37.4,71,30.00,10.0,NNW,3.5,-,N/A,,Clear,340,2012-11-01 08:20:00
3:40 AM,44.6,37.4,76,30.01,10.0,North,8.1,-,N/A,,Clear,10,2012-11-01 08:40:00
4:00 AM,44.6,35.6,71,30.00,10.0,North,5.8,-,N/A,,Clear,350,2012-11-01 09:00:00
4:20 AM,44.6,35.6,71,30.00,10.0,North,5.8,-,N/A,,Clear,360,2012-11-01 09:20:00
5:00 AM,42.8,35.6,76,30.00,10.0,North,9.2,-,N/A,,Clear,360,2012-11-01 10:00:00
5:20 AM,42.8,35.6,76,30.01,10.0,North,8.1,-,N/A,,Clear,10,2012-11-01 10:20:00
6:00 AM,41.0,33.8,76,30.01,10.0,NNE,6.9,-,N/A,,Clear,20,2012-11-01 11:00:00
6:20 AM,41.0,32.0,70,30.01,10.0,NNE,5.8,-,N/A,,Clear,30,2012-11-01 11:20:00
7:00 AM,41.0,32.0,70,30.01,10.0,NNE,8.1,-,N/A,,Clear,20,2012-11-01 12:00:00
7:40 AM,41.0,32.0,70,30.01,10.0,North,6.9,-,N/A,,Clear,10,2012-11-01 12:40:00
8:00 AM,41.0,32.0,70,30.02,8.0,North,8.1,-,N/A,,Clear,360,2012-11-01 13:00:00
8:20 AM,42.8,33.8,70,30.03,9.0,North,8.1,-,N/A,,Clear,10,2012-11-01 13:20:00
8:40 AM,44.6,33.8,66,30.03,8.0,NNW,5.8,-,N/A,,Clear,340,2012-11-01 13:40:00
9:00 AM,46.4,33.8,62,30.04,9.0,NNW,5.8,-,N/A,,Clear,340,2012-11-01 14:00:00
9:20 AM,50.0,33.8,54,30.04,9.0,NNW,4.6,-,N/A,,Clear,340,2012-11-01 14:20:00
9:40 AM,50.0,35.6,58,30.04,9.0,NNW,4.6,-,N/A,,Clear,330,2012-11-01 14:40:00
10:00 AM,53.6,35.6,51,30.04,7.0,Calm,Calm,-,N/A,,Clear,0,2012-11-01 15:00:00
10:20 AM,55.4,37.4,51,30.04,9.0,West,3.5,-,N/A,,Clear,280,2012-11-01 15:20:00
11:00 AM,59.0,39.2,48,30.04,9.0,NW,3.5,-,N/A,,Clear,310,2012-11-01 16:00:00
11:20 AM,60.8,39.2,45,30.03,10.0,NW,5.8,-,N/A,,Clear,310,2012-11-01 16:20:00
11:40 AM,64.4,39.2,40,30.03,9.0,NW,4.6,-,N/A,,Clear,310,2012-11-01 16:40:00
12:00 PM,66.2,39.2,37,30.03,10.0,Calm,Calm,-,N/A,,Clear,0,2012-11-01 17:00:00
12:20 PM,68.0,39.2,35,30.02,9.0,Calm,Calm,-,N/A,,Clear,0,2012-11-01 17:20:00
12:40 PM,69.8,39.2,33,30.01,10.0,West,3.5,-,N/A,,Clear,280,2012-11-01 17:40:00
1:00 PM,71.6,39.2,31,30.00,10.0,East,3.5,-,N/A,,Clear,80,2012-11-01 18:00:00
1:20 PM,73.4,39.2,29,29.99,9.0,Calm,Calm,-,N/A,,Clear,0,2012-11-01 18:20:00
1:40 PM,73.4,39.2,29,29.98,9.0,Calm,Calm,-,N/A,,Clear,0,2012-11-01 18:40:00
2:00 PM,75.2,39.2,27,29.97,8.0,ESE,4.6,-,N/A,,Clear,110,2012-11-01 19:00:00
2:20 PM,75.2,39.2,27,29.96,10.0,SE,4.6,-,N/A,,Clear,130,2012-11-01 19:20:00
2:40 PM,77.0,37.4,24,29.95,10.0,East,4.6,-,N/A,,Clear,100,2012-11-01 19:40:00
3:00 PM,77.0,39.2,26,29.94,9.0,South,4.6,-,N/A,,Clear,170,2012-11-01 20:00:00
3:20 PM,77.0,37.4,24,29.94,9.0,Calm,Calm,-,N/A,,Clear,0,2012-11-01 20:20:00
3:40 PM,77.0,37.4,24,29.94,9.0,East,5.8,-,N/A,,Clear,100,2012-11-01 20:40:00
4:00 PM,77.0,37.4,24,29.94,10.0,ESE,6.9,-,N/A,,Clear,120,2012-11-01 21:00:00
4:20 PM,77.0,37.4,24,29.93,9.0,SE,4.6,-,N/A,,Clear,130,2012-11-01 21:20:00
4:40 PM,77.0,39.2,26,29.93,8.0,SSE,6.9,-,N/A,,Clear,150,2012-11-01 21:40:00
5:00 PM,77.0,37.4,24,29.93,8.0,SE,8.1,-,N/A,,Clear,140,2012-11-01 22:00:00
5:20 PM,75.2,37.4,25,29.92,10.0,SE,8.1,-,N/A,,Clear,140,2012-11-01 22:20:00
5:40 PM,75.2,37.4,25,29.93,10.0,SE,6.9,-,N/A,,Clear,140,2012-11-01 22:40:00
6:00 PM,71.6,37.4,29,29.93,8.0,SE,6.9,-,N/A,,Clear,140,2012-11-01 23:00:00
6:20 PM,68.0,37.4,33,29.93,5.0,SE,8.1,-,N/A,,Haze,140,2012-11-01 23:20:00
6:40 PM,66.2,39.2,37,29.93,7.0,SE,8.1,-,N/A,,Clear,130,2012-11-01 23:40:00
7:00 PM,64.4,39.2,40,29.93,7.0,ESE,8.1,-,N/A,,Clear,120,2012-11-02 00:00:00
7:20 PM,62.6,39.2,42,29.93,6.0,SE,9.2,-,N/A,,Haze,130,2012-11-02 00:20:00
7:40 PM,62.6,39.2,42,29.93,7.0,SE,10.4,-,N/A,,Clear,130,2012-11-02 00:40:00
8:00 PM,62.6,39.2,42,29.92,8.0,SE,9.2,-,N/A,,Clear,140,2012-11-02 01:00:00
8:40 PM,60.8,39.2,45,29.92,10.0,SSE,10.4,-,N/A,,Clear,150,2012-11-02 01:40:00
9:00 PM,62.6,41.0,45,29.92,10.0,SSE,11.5,-,N/A,,Clear,150,2012-11-02 02:00:00
9:20 PM,60.8,41.0,48,29.92,10.0,SSE,10.4,-,N/A,,Clear,160,2012-11-02 02:20:00
9:40 PM,55.4,41.0,58,29.92,9.0,South,10.4,-,N/A,,Clear,180,2012-11-02 02:40:00
10:00 PM,55.4,39.2,54,29.92,8.0,South,9.2,-,N/A,,Clear,170,2012-11-02 03:00:00
10:20 PM,55.4,41.0,58,29.91,5.0,SSE,8.1,-,N/A,,Haze,150,2012-11-02 03:20:00
10:40 PM,57.2,41.0,55,29.91,10.0,SSE,9.2,-,N/A,,Clear,150,2012-11-02 03:40:00
11:00 PM,57.2,41.0,55,29.91,10.0,SSE,8.1,-,N/A,,Clear,150,2012-11-02 04:00:00
11:20 PM,57.2,42.8,59,29.91,10.0,SSE,6.9,-,N/A,,Clear,150,2012-11-02 04:20:00
11:40 PM,55.4,41.0,58,29.90,7.0,SSE,6.9,-,N/A,,Clear,160,2012-11-02 04:40:00